Regional Weather Roundup
Issued by NWS

Home | Current Version | Previous Version | Graphics & Text | Print | Product List | Glossary On
Versions: 1 2 3 4 5 6 7 8 9 10 11 12 13 14 15 16 17 18 19 20 21 22 23 24 25 26 27 28 29 30 31 32 33 34 35 36 37 38 39 40 41 42 43 44 45 46 47 48 49 50
000
ASUS43 KLSX 251410
RWRMO

WEATHER SUMMARY FOR MISSOURI
NATIONAL WEATHER SERVICE SPRINGFIELD MO
900 AM CDT MON JUL 25 2016

NOTE: "FAIR" INDICATES FEW OR NO CLOUDS BELOW 12,000 FEET WITH NO
       SIGNIFICANT WEATHER AND/OR OBSTRUCTIONS TO VISIBILITY.
       CURRENT SKY AND/OR WEATHER CONDITIONS ARE NOT AVAILABLE FOR
       CHILLICOTHE AND FARMINGTON.

MOZ001>031-035>038-043-044-053-054-251500-
...NORTHERN AND WESTERN MISSOURI...

CITY           SKY/WX    TMP DP  RH WIND       PRES   REMARKS
KANSAS CTY INT CLOUDY    74  67  78 NE10      30.08R
KANSAS C DTWN  CLOUDY    76  68  76 NE6       30.07R
LEE`S SUMMIT   CLOUDY    74  70  87 NE7       30.09R
ST JOSEPH      CLOUDY    71  67  87 CALM      30.09R
CHILLICOTHE      N/A     75  67  76 N3        30.08R
KIRKSVILLE     MOSUNNY   75  67  76 N7        30.07R

$$
MOZ066>068-077>081-088>096-101>105-251500-
...SOUTHWEST MISSOURI...

CITY           SKY/WX    TMP DP  RH WIND       PRES   REMARKS
SPRINGFIELD    LGT RAIN  72  70  93 NE18      30.08R
JOPLIN         CLOUDY    77  70  79 NE10      30.05R
BRANSON        CLOUDY    75  72  88 N15       30.09R THUNDER

$$
MOZ032>034-039>042-045>050-055>058-069>072-251500-
...CENTRAL MISSOURI...

CITY           SKY/WX    TMP DP  RH WIND       PRES   REMARKS
COLUMBIA       CLOUDY    73  72  96 W6        30.04R
JEFFERSON CITY CLOUDY    73  71  93 CALM      30.03S
ROLLA          CLOUDY    73  71  93 SW13      30.04S
SEDALIA        CLOUDY    74  72  93 NW3       30.06R
WHITEMAN AFB   PTSUNNY   73  73 100 NW1       30.05R
OSAGE BEACH    RAIN      72  72 100 S7        30.05F

$$
MOZ051-052-059>065-251500-
...EAST CENTRAL MISSOURI...

CITY           SKY/WX    TMP DP  RH WIND       PRES   REMARKS
ST LOUIS INTL  CLOUDY    77  72  84 W3        30.02R
SPIRIT OF STL  CLOUDY    76  73  91 CALM      30.00R
ST CHARLES     CLOUDY    75  73  93 W5        30.02R

$$
MOZ072>076-082>087-097>100-106>115-251500-
...SOUTH CENTRAL AND SOUTHEAST MISSOURI...

CITY           SKY/WX    TMP DP  RH WIND       PRES   REMARKS
CAPE GIRARDEAU CLOUDY    82  78  88 S6        29.99S HX  91
FARMINGTON     CLOUDY    76  73  91 NW3       30.03R
POPLAR BLUFF   PTSUNNY   82  75  79 S6        30.00R
WEST PLAINS    RAIN      74  70  87 NW10      30.08F FOG

$$



USA.gov is the U.S. government's official web portal to all federal, state and local government web resources and services.